SCP
-0 -0 0 0 0 0 -0 -0 -0 0 0 0 0 0 -0 0 0 0 0 0 0 0 0 0 -0 -0 -0 -0 -0 -0 -0 -0 -0 -0 -0 0 -0 -0 -0 -0 0 0 0 0 0 0 0 0 0
-0 -0 -0 0 0 0 -0 0 0 -0 0 0 0 0 0 0 0 0 0 0 0 0 0 0 0 -0 -0 -0 -0 -0 -0 -0 0 -0 -0 -0 0 -0 -0 -0 0 0 0 0 0 0 0 0 0
-0 0 -0 0 -0 -0 -0 0 0 -0 -0 0 0 0 0 0 -0 0 0 -0 -0 0 0 0 0 0 0 -0 -0 -0 0 0 -0 0 0 0 0 -0 -0 -0 -0 -0 -0 -0 0 0 0 0 0
0 0 -0 0 -0 0 -0 -0 0 -0 0 0 -0 0 0 0 0 0 0 -0 0 -0 -0 0 -0 -0 -0 -0 -0 0 -0 -0 0 0 -0 -0 0 -0 -0 -0 -0 -0 -0 -0 0 0 0 0 0
0 0 0 0 0 0 0 0 0 -0 -0 -0 -0 0 0 0 0 -0 0 -0 -0 -0 0 -0 -0 -0 -0 -0 -0 -0 -0 -0 -0 -0 -0 -0 -0 -0 -0 -0 -0 -0 -0 -0 -0 0 0 0 0
0 0 0 0 0 0 0 0 0 -0 -0 -0 0 -0 -0 0 -0 0 -0 -0 -0 -0 -0 -0 -0 -0 -0 -0 -0 -0 -0 -0 -0 -0 -0 -0 -0 -0 -0 -0 -0 -0 -0 -0 -0 -0 0 0 0
0 0 0 0 -0 -0 0 -0 -0 -0 0 -0 -0 0 -0 0 0 0 0 -0 -0 -0 -0 -0 -0 -0 -0 -0 -0 -0 -0 -0 -0 -0 -0 -0 -0 -0 -0 -0 -0 -0 -0 -0 -0 -0 0 0 0
0 0 0 0 0 0 0 0 0 0 0 -0 -0 -0 -0 0 -0 -0 0 0 -0 -0 -0 -0 -0 -0 -0 -0 -0 -0 -0 -0 -0 -0 -0 -0 -0 -0 -0 -0 0 0 0 0 0 0 0 0 0
0 0 0 0 0 0 0 0 0 0 0 0 0 0 0 -0 0 0 0 0 0 -0 -0 -0 -0 -0 -0 0 -0 -0 -0 -0 -0 -0 -0 -0 0 0 0 0 0 0 0 0 0 0 0 0 0
0 0 0 0 0 0 0 0 0 0 0 0 0 0 -0 -0 0 0 0 0 0 0 0 -0 -0 -0 -0 -0 0 0 0 0 0 0 0 0 0 0 0 0 0 0 0 0 0 0 0 0 0
0 0 0 0 0 0 0 0 0 0 0 0 0 0 0 0 0 0 0 0 0 0 0 0 0 0 0 0 0 0 0 0 0 0 0 0 0 0 0 0 0 0 0 0 0 0 0 0 0
0 0 0 0 0 0 0 0 0 0 0 0 0 0 0 0 0 0 0 0 0 0 0 0 0 0 0 0 0 0 0 0 0 0 0 0 0 0 0 0 0 0 0 0 0 0 0 0 0
0 0 0 0 0 0 0 0 0 0 0 0 0 0 0 0 0 0 0 0 0 0 0 0 0 0 0 0 0 0 0 0 0 0 0 0 0 0 0 0 0 0 0 0 0 0 0 0 0
0 0 0 0 0 0 0 0 0 0 0 0 0 0 0 0 0 0 0 0 0 0 0 0 0 0 0 0 0 0 0 0 0 0 0 0 0 0 0 0 0 0 0 0 0 0 0 0 0
0 0 0 0 0 0 0 0 0 0 0 0 0 0 0 0 0 0 0 0 0 0 0 0 0 0 0 0 0 0 0 0 0 0 0 0 0 0 0 0 0 0 0 0 0 0 0 0 0
0 0 0 0 0 0 0 0 0 0 0 0 0 0 0 0 0 0 0 0 0 0 0 0 0 0 0 0 0 0 0 0 0 0 0 0 0 0 0 0 0 0 0 0 0 0 0 0 0
0 0 0 0 0 0 0 0 0 0 0 0 0 0 0 0 0 0 0 0 0 0 0 0 0 0 0 0 0 0 0 0 0 0 0 0 0 0 0 0 0 0 0 0 0 0 0 0 0
0 0 0 0 0 0 0 0 0 0 0 0 0 0 0 0 0 0 0 0 0 0 0 0 0 0 0 0 0 0 0 0 0 0 0 0 0 0 0 0 0 0 0 0 0 0 0 0 0
0 0 0 0 0 0 0 0 0 0 0 0 0 0 0 0 0 0 0 0 0 0 0 0 0 0 0 0 0 0 0 0 0 0 0 0 0 0 0 0 0 0 0 0 0 0 0 0 0
0 0 0 0 0 0 0 0 0 0 0 0 0 0 0 0 0 0 0 0 0 0 0 0 0 0 0 0 0 0 0 0 0 0 0 0 0 0 0 0 0 0 0 0 0 0 0 0 0
0 0 0 0 0 0 0 0 0 0 0 0 0 0 0 0 0 0 0 0 0 0 0 0 0 0 0 0 0 0 0 0 0 0 0 0 0 0 0 0 0 0 0 0 0 0 0 0 0
0 0 0 0 0 0 0 0 0 0 0 0 0 0 0 0 0 0 0 0 0 0 0 0 0 0 0 0 0 0 0 0 0 0 0 0 0 0 0 0 0 0 0 0 0 0 0 0 0
0 0 0 0 0 0 0 0 -0 0 0 0 0 0 0 0 0 0 0 0 0 0 0 0 0 0 0 0 0 0 0 0 0 0 0 0 0 0 0 0 0 0 0 0 0 0 0 0 0
0 0 0 0 0 0 0 0 0 0 0 0 0 0 0 0 0 0 0 0 0 0 0 0 0 0 0 0 0 0 0 0 0 0 0 0 0 0 0 0 0 0 0 0 0 0 0 0 0
0 0 0 0 0 0 0 0 0 0 0 0 0 0 0 0 0 0 0 0 0 0 0 0 0 0 0 0 0 0 0 0 0 0 0 0 0 0 0 0 0 0 0 0 0 0 0 0 0
0 0 0 0 0 0 0 0 0 0 0 0 0 0 0 0 0 0 0 0 0 0 0 0 0 0 0 0 0 0 0 0 0 0 0 0 0 0 0 0 0 0 0 0 0 0 0 0 0
0 0 0 0 0 0 0 0 0 0 0 0 0 0 0 0 0 0 0 0 0 0 0 0 0 0 0 0 0 0 0 0 0 0 0 0 0 0 0 0 0 0 0 0 0 0 0 0 0
0 0 0 0 0 0 0 0 0 0 0 0 0 0 0 0 0 0 0 0 0 0 0 0 0 0 0 0 0 0 0 0 0 0 0 0 0 0 0 0 0 0 0 0 0 0 0 0 0
0 0 0 0 0 0 0 0 0 0 0 0 0 0 0 0 0 0 0 0 0 0 0 0 0 0 0 0 0 0 0 0 0 0 0 0 0 0 0 0 0 0 0 0 0 0 0 0 0
0 0 0 0 0 0 0 0 0 0 0 0 0 0 0 0 0 0 0 0 0 0 0 0 0 0 0 0 0 0 0 0 0 0 0 0 0 0 0 0 0 0 0 0 0 0 0 0 0
Wind_Speed_500mb
34 29 23 5 9 11 4 4 9 8 7 13 15 15 21 15 7 13 30 24 19 28 29 28 26 20 18 15 13 12 12 11 15 17 18 20 27 26 24 22 27 27 26 29 31 31 32 34 34
36 29 12 4 9 9 4 7 16 9 17 17 17 27 11 6 22 36 41 27 18 28 28 27 25 20 16 13 12 15 13 14 17 22 24 23 27 23 20 23 23 23 25 27 29 29 31 33 34
27 22 10 7 7 8 8 9 15 17 14 9 9 20 9 10 28 50 35 30 23 24 30 27 24 20 16 13 14 14 13 16 18 21 25 23 28 25 18 15 18 22 23 26 26 27 29 31 32
38 11 4 9 14 10 15 12 34 16 6 7 21 18 16 12 35 27 47 38 28 29 28 28 26 22 18 13 12 14 14 15 17 20 27 23 26 27 20 12 16 22 22 23 23 24 26 27 29
25 8 7 6 8 9 8 41 34 12 15 7 5 11 17 23 18 26 49 42 32 33 30 30 27 24 21 15 10 13 17 16 14 15 17 22 24 25 22 16 15 19 20 20 20 20 22 22 23
16 9 8 6 6 8 11 27 26 19 25 9 14 16 10 16 23 43 44 39 32 33 32 34 32 27 24 19 14 13 14 16 16 13 13 13 15 16 16 17 14 17 20 18 17 17 17 18 18
8 7 4 6 9 6 11 15 17 21 19 10 4 9 18 23 24 51 45 35 32 29 30 38 36 32 27 24 20 18 16 15 16 14 14 11 9 10 11 15 15 13 19 17 15 14 14 15 15
9 6 11 9 6 3 12 16 15 17 6 14 6 11 12 33 30 47 44 36 32 29 27 37 37 34 31 28 25 22 20 19 16 15 13 13 11 10 9 11 15 14 13 15 13 12 11 12 12
3 7 5 9 14 5 13 6 9 14 18 11 7 7 10 26 35 51 46 43 39 33 30 32 38 37 34 31 29 27 26 23 20 17 15 15 15 13 12 12 14 15 15 15 14 13 12 11 11
5 6 3 9 6 8 9 7 12 6 17 10 15 13 15 22 38 51 48 45 42 37 37 32 35 39 41 39 36 32 31 27 24 21 20 20 20 18 16 16 15 18 18 18 17 16 14 13 13
7 10 7 6 12 17 13 6 4 10 3 12 26 30 28 27 36 42 42 39 37 31 34 36 33 32 38 41 41 41 38 35 32 28 26 26 25 24 21 21 20 21 22 22 21 19 18 17 17
3 7 8 5 8 10 8 17 6 1 5 10 14 20 30 30 30 32 33 34 36 38 34 37 41 40 40 39 41 44 44 43 40 36 34 33 29 26 25 26 24 25 25 26 25 24 24 22 21
5 7 16 8 4 1 7 10 8 19 10 7 5 27 28 26 26 26 23 28 30 34 34 40 43 47 44 43 42 41 42 44 40 40 38 36 34 31 30 29 31 30 31 31 30 29 28 25 24
6 4 16 18 9 5 3 8 9 10 9 12 11 20 25 24 25 26 30 31 33 32 35 36 42 44 50 51 48 47 44 44 43 40 39 38 37 37 38 36 36 36 35 35 35 33 32 29 29
2 5 8 10 10 10 10 10 19 34 30 28 17 28 27 29 28 30 27 29 33 40 37 41 41 43 50 52 52 49 48 49 49 46 44 46 42 43 43 43 41 38 38 38 39 38 39 37 36
8 7 5 9 14 15 16 18 26 15 32 49 50 40 36 35 37 36 34 33 33 37 46 45 45 46 48 54 56 53 52 53 53 53 51 52 49 47 50 49 46 42 43 44 45 44 44 44 42
2 5 9 11 33 12 15 14 22 18 24 42 45 55 53 49 41 45 48 44 42 44 46 49 52 50 50 51 56 59 57 59 59 57 57 57 56 54 56 54 50 48 50 52 50 51 51 50 47
11 8 9 10 6 15 14 17 16 31 32 38 42 32 47 40 42 33 50 47 46 48 50 52 53 52 50 52 55 60 62 66 65 67 66 62 63 61 62 61 58 57 58 58 57 57 56 56 50
9 10 15 6 17 15 18 14 22 22 23 42 57 50 39 41 46 35 32 46 46 47 53 55 55 57 54 57 60 66 71 70 72 73 73 70 68 68 66 68 66 67 69 65 62 60 61 62 55
17 13 9 10 10 9 7 14 17 33 28 38 45 56 59 53 48 52 55 53 48 50 55 56 58 60 61 63 64 66 68 72 72 74 75 76 75 75 74 74 75 75 76 75 72 69 70 69 61
18 14 8 10 9 5 3 17 17 19 47 62 59 66 59 61 57 60 55 46 44 44 59 59 58 62 65 65 65 66 68 71 73 79 81 82 82 82 82 81 82 83 84 86 83 79 79 79 73
25 13 11 5 3 9 6 14 9 11 20 18 47 60 74 65 65 67 62 61 56 54 51 47 63 61 60 60 66 68 71 76 76 77 78 81 82 84 85 86 89 91 92 93 95 91 89 85 87
15 16 15 7 3 4 1 8 11 6 11 20 36 45 51 59 60 52 43 30 26 21 20 32 45 54 52 53 61 67 72 72 71 75 78 80 81 83 84 86 91 97 99 99 101 102 101 100 97
15 13 12 7 7 17 17 15 10 13 28 19 20 31 39 47 40 29 20 17 20 20 24 27 25 29 33 46 59 69 72 73 77 78 81 81 81 85 85 87 89 93 98 102 104 107 110 109 108
24 20 4 7 8 16 17 17 32 9 15 12 12 8 16 25 34 32 28 23 18 19 21 18 18 15 20 30 34 41 47 53 63 73 82 86 89 90 92 92 95 97 98 100 103 108 114 118 118
33 26 12 15 10 5 15 17 12 21 30 11 20 17 32 28 24 19 15 12 7 9 2 3 5 11 15 19 24 29 35 41 48 58 66 74 84 91 92 94 95 99 100 101 103 111 116 116 120
14 18 16 10 6 5 10 11 14 11 15 12 22 28 37 32 25 22 20 12 5 3 7 9 8 11 16 21 26 30 33 39 44 50 58 68 71 81 90 95 92 94 96 98 101 107 112 114 116
23 15 12 7 7 8 9 9 13 8 19 20 18 32 40 36 32 26 16 12 2 6 10 14 16 19 20 21 25 30 34 38 43 50 57 62 69 71 74 84 92 96 100 100 101 107 110 113 118
10 13 11 10 11 12 3 12 15 27 15 19 12 50 53 43 34 25 15 7 8 12 16 15 14 15 18 23 27 29 31 31 34 40 46 52 57 62 71 75 82 91 98 104 107 111 111 113 117
26 25 25 16 24 12 4 14 3 18 16 19 33 49 42 37 33 23 14 8 12 15 15 13 14 16 19 22 27 30 33 35 38 41 45 49 57 59 61 66 74 80 88 95 104 111 114 115 117
Wind_Direction_500mb
343 341 340 345 61 70 89 89 125 81 59 85 68 70 105 69 60 135 143 185 167 163 156 146 138 128 124 116 117 129 119 109 110 108 118 110 104 108 100 103 102 107 105 102 98 98 101 103 99
345 344 24 40 88 87 273 91 101 103 119 118 77 119 46 98 118 133 137 174 165 158 159 153 145 135 129 119 114 130 130 121 119 119 123 111 112 105 106 98 109 104 108 104 101 101 103 106 105
351 353 346 99 104 122 127 151 131 115 133 156 104 88 88 110 132 149 158 161 173 165 164 160 152 143 136 126 115 120 126 121 126 134 121 115 114 113 111 113 115 112 113 109 107 106 105 109 108
349 12 320 77 90 357 123 156 120 117 72 55 113 80 92 141 147 158 164 168 176 156 162 163 159 153 145 138 126 123 119 125 133 131 130 125 124 125 124 122 128 123 120 114 113 111 111 112 114
3 322 27 72 82 84 93 136 145 158 156 145 105 145 112 151 188 168 163 177 181 169 173 171 171 166 159 154 144 138 135 137 134 134 136 133 134 136 138 135 129 126 124 121 119 116 116 119 120
357 5 38 37 101 104 104 146 151 129 130 124 117 109 144 188 186 165 163 179 184 177 181 179 179 176 171 171 162 157 151 147 147 147 143 150 155 154 162 152 138 139 134 131 129 126 126 125 127
35 43 271 323 153 127 147 148 146 145 139 156 118 79 147 191 173 168 163 183 189 195 189 183 184 182 182 182 179 175 168 167 165 167 165 168 181 183 177 171 167 159 145 145 144 139 136 137 138
12 62 323 337 186 169 156 135 74 106 90 123 67 163 179 192 164 165 165 185 199 201 190 190 191 191 191 190 189 187 185 182 180 185 188 188 193 207 203 187 177 176 166 162 163 156 153 152 153
19 54 311 331 19 333 149 91 77 92 119 92 101 152 139 157 168 171 174 188 200 208 202 193 197 199 200 200 200 198 198 195 192 197 204 208 212 212 210 209 192 191 188 185 184 184 183 178 172
137 121 221 31 43 322 182 116 149 116 124 110 110 128 153 164 179 183 189 195 202 204 205 205 200 205 205 206 206 207 209 210 210 208 215 220 222 223 222 218 211 206 206 204 204 206 206 204 198
194 182 294 44 52 27 339 71 206 137 198 207 190 183 183 186 185 194 201 207 209 213 210 210 213 210 213 209 207 210 214 218 220 220 222 227 227 228 226 229 225 221 220 220 218 219 222 222 223
224 265 286 315 67 44 23 337 15 9 119 18 221 202 191 193 196 196 205 211 212 222 223 214 215 221 220 224 220 217 218 222 226 226 227 232 238 237 233 234 234 230 230 230 229 228 231 236 243
237 244 263 1 330 45 296 307 294 289 266 10 128 204 209 209 215 214 217 224 221 227 232 227 220 225 228 230 232 232 227 232 233 230 226 231 242 243 242 240 238 237 236 237 236 238 241 244 246
297 243 245 286 227 207 206 268 317 208 259 259 199 190 216 232 235 230 228 225 234 239 236 236 234 229 230 236 238 240 239 240 243 243 241 236 239 243 243 243 240 238 239 241 244 247 249 250 250
66 42 6 290 233 204 199 294 239 241 243 260 245 226 227 239 241 248 249 249 249 252 251 245 242 237 235 238 242 241 245 243 246 250 248 247 242 244 245 246 247 244 241 241 243 245 248 249 250
110 66 94 261 214 208 148 260 254 248 257 250 248 236 237 228 236 246 247 254 258 256 253 253 250 244 243 241 243 245 242 248 250 250 250 251 248 247 247 247 249 249 245 245 245 247 249 252 253
344 170 193 276 237 220 169 241 253 266 275 264 265 256 238 236 236 245 243 245 250 256 255 253 252 252 248 245 245 246 247 247 252 252 250 251 253 249 250 250 252 249 247 247 247 248 249 251 254
168 184 241 215 259 198 211 232 253 256 285 293 293 273 235 228 234 255 234 240 249 251 252 256 256 255 254 250 248 248 246 249 250 252 252 252 253 252 251 253 253 251 249 248 247 248 250 252 254
169 185 209 245 245 213 227 219 249 270 275 271 274 275 263 248 246 251 240 244 248 252 250 251 255 258 254 251 247 246 248 249 249 251 252 254 253 255 252 254 254 253 252 254 255 253 251 250 250
237 237 247 285 278 188 263 263 245 272 264 254 261 264 260 254 249 248 255 257 255 255 252 253 256 257 261 261 258 255 255 257 259 259 258 258 257 256 256 255 256 255 255 254 253 252 252 252 247
218 215 185 233 323 289 308 268 244 250 260 260 250 251 257 248 246 248 249 251 256 253 248 251 260 263 261 263 262 260 256 257 257 256 257 258 258 258 258 259 259 258 256 256 257 255 252 253 251
214 182 203 188 122 235 60 288 276 269 267 248 253 245 250 246 247 253 257 263 264 265 263 256 254 258 261 263 261 262 264 264 267 268 268 266 264 262 261 261 260 259 258 257 258 257 255 251 252
210 171 188 176 192 6 263 313 270 251 280 268 255 252 249 240 241 249 256 252 230 234 248 236 239 246 258 266 265 266 265 271 278 273 272 273 272 270 268 265 264 262 260 259 258 258 256 254 252
150 90 46 66 87 257 204 197 211 215 232 254 266 263 226 221 231 215 195 206 223 249 265 255 238 234 237 246 255 260 269 273 274 277 276 277 276 275 272 271 267 266 264 263 262 261 259 257 256
168 140 123 204 214 235 189 196 255 275 269 223 171 118 170 181 165 178 198 213 237 246 255 257 252 231 232 240 249 256 263 269 273 274 278 279 278 276 274 272 269 268 269 269 268 264 263 260 257
184 177 161 190 204 225 146 229 249 219 236 86 261 208 150 152 159 173 191 213 211 202 340 323 264 267 271 275 269 267 264 266 265 270 277 280 279 280 281 278 275 272 272 271 270 267 266 265 263
189 201 175 111 24 66 219 298 315 254 256 220 170 152 142 150 161 168 156 128 107 39 350 336 326 297 301 298 293 288 280 271 271 267 265 266 273 277 279 278 274 272 272 271 270 268 266 266 265
175 140 195 193 166 245 263 247 229 236 227 249 224 218 172 172 168 151 139 133 107 298 294 305 307 305 307 305 305 301 297 291 285 282 276 275 274 271 273 274 272 272 273 272 271 271 271 266 264
145 186 200 160 174 198 233 249 208 212 204 209 189 169 169 176 166 157 158 185 265 276 284 292 293 292 289 295 301 308 313 307 299 297 291 286 284 281 277 274 276 274 271 269 270 269 269 268 266
203 196 189 197 215 220 185 258 239 150 158 144 169 170 180 175 170 171 177 219 251 261 265 271 275 286 301 305 309 313 314 310 311 315 313 300 287 283 281 277 275 274 272 271 269 269 268 268 266
Wind_Speed_850mb
34 29 23 5 9 11 4 4 9 8 7 13 15 15 21 15 7 13 30 24 19 28 29 28 26 20 18 15 13 12 12 11 15 17 18 20 27 26 24 22 27 27 26 29 31 31 32 34 34
36 29 12 4 9 9 4 7 16 9 17 17 17 27 11 6 22 36 41 27 18 28 28 27 25 20 16 13 12 15 13 14 17 22 24 23 27 23 20 23 23 23 25 27 29 29 31 33 34
27 22 10 7 7 8 8 9 15 17 14 9 9 20 9 10 28 50 35 30 23 24 30 27 24 20 16 13 14 14 13 16 18 21 25 23 28 25 18 15 18 22 23 26 26 27 29 31 32
38 11 4 9 14 10 15 12 34 16 6 7 21 18 16 12 35 27 47 38 28 29 28 28 26 22 18 13 12 14 14 15 17 20 27 23 26 27 20 12 16 22 22 23 23 24 26 27 29
25 8 7 6 8 9 8 41 34 12 15 7 5 11 17 23 18 26 49 42 32 33 30 30 27 24 21 15 10 13 17 16 14 15 17 22 24 25 22 16 15 19 20 20 20 20 22 22 23
16 9 8 6 6 8 11 27 26 19 25 9 14 16 10 16 23 43 44 39 32 33 32 34 32 27 24 19 14 13 14 16 16 13 13 13 15 16 16 17 14 17 20 18 17 17 17 18 18
8 7 4 6 9 6 11 15 17 21 19 10 4 9 18 23 24 51 45 35 32 29 30 38 36 32 27 24 20 18 16 15 16 14 14 11 9 10 11 15 15 13 19 17 15 14 14 15 15
9 6 11 9 6 3 12 16 15 17 6 14 6 11 12 33 30 47 44 36 32 29 27 37 37 34 31 28 25 22 20 19 16 15 13 13 11 10 9 11 15 14 13 15 13 12 11 12 12
3 7 5 9 14 5 13 6 9 14 18 11 7 7 10 26 35 51 46 43 39 33 30 32 38 37 34 31 29 27 26 23 20 17 15 15 15 13 12 12 14 15 15 15 14 13 12 11 11
5 6 3 9 6 8 9 7 12 6 17 10 15 13 15 22 38 51 48 45 42 37 37 32 35 39 41 39 36 32 31 27 24 21 20 20 20 18 16 16 15 18 18 18 17 16 14 13 13
7 10 7 6 12 17 13 6 4 10 3 12 26 30 28 27 36 42 42 39 37 31 34 36 33 32 38 41 41 41 38 35 32 28 26 26 25 24 21 21 20 21 22 22 21 19 18 17 17
3 7 8 5 8 10 8 17 6 1 5 10 14 20 30 30 30 32 33 34 36 38 34 37 41 40 40 39 41 44 44 43 40 36 34 33 29 26 25 26 24 25 25 26 25 24 24 22 21
5 7 16 8 4 1 7 10 8 19 10 7 5 27 28 26 26 26 23 28 30 34 34 40 43 47 44 43 42 41 42 44 40 40 38 36 34 31 30 29 31 30 31 31 30 29 28 25 24
6 4 16 18 9 5 3 8 9 10 9 12 11 20 25 24 25 26 30 31 33 32 35 36 42 44 50 51 48 47 44 44 43 40 39 38 37 37 38 36 36 36 35 35 35 33 32 29 29
2 5 8 10 10 10 10 10 19 34 30 28 17 28 27 29 28 30 27 29 33 40 37 41 41 43 50 52 52 49 48 49 49 46 44 46 42 43 43 43 41 38 38 38 39 38 39 37 36
8 7 5 9 14 15 16 18 26 15 32 49 50 40 36 35 37 36 34 33 33 37 46 45 45 46 48 54 56 53 52 53 53 53 51 52 49 47 50 49 46 42 43 44 45 44 44 44 42
2 5 9 11 33 12 15 14 22 18 24 42 45 55 53 49 41 45 48 44 42 44 46 49 52 50 50 51 56 59 57 59 59 57 57 57 56 54 56 54 50 48 50 52 50 51 51 50 47
11 8 9 10 6 15 14 17 16 31 32 38 42 32 47 40 42 33 50 47 46 48 50 52 53 52 50 52 55 60 62 66 65 67 66 62 63 61 62 61 58 57 58 58 57 57 56 56 50
9 10 15 6 17 15 18 14 22 22 23 42 57 50 39 41 46 35 32 46 46 47 53 55 55 57 54 57 60 66 71 70 72 73 73 70 68 68 66 68 66 67 69 65 62 60 61 62 55
17 13 9 10 10 9 7 14 17 33 28 38 45 56 59 53 48 52 55 53 48 50 55 56 58 60 61 63 64 66 68 72 72 74 75 76 75 75 74 74 75 75 76 75 72 69 70 69 61
18 14 8 10 9 5 3 17 17 19 47 62 59 66 59 61 57 60 55 46 44 44 59 59 58 62 65 65 65 66 68 71 73 79 81 82 82 82 82 81 82 83 84 86 83 79 79 79 73
25 13 11 5 3 9 6 14 9 11 20 18 47 60 74 65 65 67 62 61 56 54 51 47 63 61 60 60 66 68 71 76 76 77 78 81 82 84 85 86 89 91 92 93 95 91 89 85 87
15 16 15 7 3 4 1 8 11 6 11 20 36 45 51 59 60 52 43 30 26 21 20 32 45 54 52 53 61 67 72 72 71 75 78 80 81 83 84 86 91 97 99 99 101 102 101 100 97
15 13 12 7 7 17 17 15 10 13 28 19 20 31 39 47 40 29 20 17 20 20 24 27 25 29 33 46 59 69 72 73 77 78 81 81 81 85 85 87 89 93 98 102 104 107 110 109 108
24 20 4 7 8 16 17 17 32 9 15 12 12 8 16 25 34 32 28 23 18 19 21 18 18 15 20 30 34 41 47 53 63 73 82 86 89 90 92 92 95 97 98 100 103 108 114 118 118
33 26 12 15 10 5 15 17 12 21 30 11 20 17 32 28 24 19 15 12 7 9 2 3 5 11 15 19 24 29 35 41 48 58 66 74 84 91 92 94 95 99 100 101 103 111 116 116 120
14 18 16 10 6 5 10 11 14 11 15 12 22 28 37 32 25 22 20 12 5 3 7 9 8 11 16 21 26 30 33 39 44 50 58 68 71 81 90 95 92 94 96 98 101 107 112 114 116
23 15 12 7 7 8 9 9 13 8 19 20 18 32 40 36 32 26 16 12 2 6 10 14 16 19 20 21 25 30 34 38 43 50 57 62 69 71 74 84 92 96 100 100 101 107 110 113 118
10 13 11 10 11 12 3 12 15 27 15 19 12 50 53 43 34 25 15 7 8 12 16 15 14 15 18 23 27 29 31 31 34 40 46 52 57 62 71 75 82 91 98 104 107 111 111 113 117
26 25 25 16 24 12 4 14 3 18 16 19 33 49 42 37 33 23 14 8 12 15 15 13 14 16 19 22 27 30 33 35 38 41 45 49 57 59 61 66 74 80 88 95 104 111 114 115 117
Wind_Direction_850mb
343 341 340 345 61 70 89 89 125 81 59 85 68 70 105 69 60 135 143 185 167 163 156 146 138 128 124 116 117 129 119 109 110 108 118 110 104 108 100 103 102 107 105 102 98 98 101 103 99
345 344 24 40 88 87 273 91 101 103 119 118 77 119 46 98 118 133 137 174 165 158 159 153 145 135 129 119 114 130 130 121 119 119 123 111 112 105 106 98 109 104 108 104 101 101 103 106 105
351 353 346 99 104 122 127 151 131 115 133 156 104 88 88 110 132 149 158 161 173 165 164 160 152 143 136 126 115 120 126 121 126 134 121 115 114 113 111 113 115 112 113 109 107 106 105 109 108
349 12 320 77 90 357 123 156 120 117 72 55 113 80 92 141 147 158 164 168 176 156 162 163 159 153 145 138 126 123 119 125 133 131 130 125 124 125 124 122 128 123 120 114 113 111 111 112 114
3 322 27 72 82 84 93 136 145 158 156 145 105 145 112 151 188 168 163 177 181 169 173 171 171 166 159 154 144 138 135 137 134 134 136 133 134 136 138 135 129 126 124 121 119 116 116 119 120
357 5 38 37 101 104 104 146 151 129 130 124 117 109 144 188 186 165 163 179 184 177 181 179 179 176 171 171 162 157 151 147 147 147 143 150 155 154 162 152 138 139 134 131 129 126 126 125 127
35 43 271 323 153 127 147 148 146 145 139 156 118 79 147 191 173 168 163 183 189 195 189 183 184 182 182 182 179 175 168 167 165 167 165 168 181 183 177 171 167 159 145 145 144 139 136 137 138
12 62 323 337 186 169 156 135 74 106 90 123 67 163 179 192 164 165 165 185 199 201 190 190 191 191 191 190 189 187 185 182 180 185 188 188 193 207 203 187 177 176 166 162 163 156 153 152 153
19 54 311 331 19 333 149 91 77 92 119 92 101 152 139 157 168 171 174 188 200 208 202 193 197 199 200 200 200 198 198 195 192 197 204 208 212 212 210 209 192 191 188 185 184 184 183 178 172
137 121 221 31 43 322 182 116 149 116 124 110 110 128 153 164 179 183 189 195 202 204 205 205 200 205 205 206 206 207 209 210 210 208 215 220 222 223 222 218 211 206 206 204 204 206 206 204 198
194 182 294 44 52 27 339 71 206 137 198 207 190 183 183 186 185 194 201 207 209 213 210 210 213 210 213 209 207 210 214 218 220 220 222 227 227 228 226 229 225 221 220 220 218 219 222 222 223
224 265 286 315 67 44 23 337 15 9 119 18 221 202 191 193 196 196 205 211 212 222 223 214 215 221 220 224 220 217 218 222 226 226 227 232 238 237 233 234 234 230 230 230 229 228 231 236 243
237 244 263 1 330 45 296 307 294 289 266 10 128 204 209 209 215 214 217 224 221 227 232 227 220 225 228 230 232 232 227 232 233 230 226 231 242 243 242 240 238 237 236 237 236 238 241 244 246
297 243 245 286 227 207 206 268 317 208 259 259 199 190 216 232 235 230 228 225 234 239 236 236 234 229 230 236 238 240 239 240 243 243 241 236 239 243 243 243 240 238 239 241 244 247 249 250 250
66 42 6 290 233 204 199 294 239 241 243 260 245 226 227 239 241 248 249 249 249 252 251 245 242 237 235 238 242 241 245 243 246 250 248 247 242 244 245 246 247 244 241 241 243 245 248 249 250
110 66 94 261 214 208 148 260 254 248 257 250 248 236 237 228 236 246 247 254 258 256 253 253 250 244 243 241 243 245 242 248 250 250 250 251 248 247 247 247 249 249 245 245 245 247 249 252 253
344 170 193 276 237 220 169 241 253 266 275 264 265 256 238 236 236 245 243 245 250 256 255 253 252 252 248 245 245 246 247 247 252 252 250 251 253 249 250 250 252 249 247 247 247 248 249 251 254
168 184 241 215 259 198 211 232 253 256 285 293 293 273 235 228 234 255 234 240 249 251 252 256 256 255 254 250 248 248 246 249 250 252 252 252 253 252 251 253 253 251 249 248 247 248 250 252 254
169 185 209 245 245 213 227 219 249 270 275 271 274 275 263 248 246 251 240 244 248 252 250 251 255 258 254 251 247 246 248 249 249 251 252 254 253 255 252 254 254 253 252 254 255 253 251 250 250
237 237 247 285 278 188 263 263 245 272 264 254 261 264 260 254 249 248 255 257 255 255 252 253 256 257 261 261 258 255 255 257 259 259 258 258 257 256 256 255 256 255 255 254 253 252 252 252 247
218 215 185 233 323 289 308 268 244 250 260 260 250 251 257 248 246 248 249 251 256 253 248 251 260 263 261 263 262 260 256 257 257 256 257 258 258 258 258 259 259 258 256 256 257 255 252 253 251
214 182 203 188 122 235 60 288 276 269 267 248 253 245 250 246 247 253 257 263 264 265 263 256 254 258 261 263 261 262 264 264 267 268 268 266 264 262 261 261 260 259 258 257 258 257 255 251 252
210 171 188 176 192 6 263 313 270 251 280 268 255 252 249 240 241 249 256 252 230 234 248 236 239 246 258 266 265 266 265 271 278 273 272 273 272 270 268 265 264 262 260 259 258 258 256 254 252
150 90 46 66 87 257 204 197 211 215 232 254 266 263 226 221 231 215 195 206 223 249 265 255 238 234 237 246 255 260 269 273 274 277 276 277 276 275 272 271 267 266 264 263 262 261 259 257 256
168 140 123 204 214 235 189 196 255 275 269 223 171 118 170 181 165 178 198 213 237 246 255 257 252 231 232 240 249 256 263 269 273 274 278 279 278 276 274 272 269 268 269 269 268 264 263 260 257
184 177 161 190 204 225 146 229 249 219 236 86 261 208 150 152 159 173 191 213 211 202 340 323 264 267 271 275 269 267 264 266 265 270 277 280 279 280 281 278 275 272 272 271 270 267 266 265 263
189 201 175 111 24 66 219 298 315 254 256 220 170 152 142 150 161 168 156 128 107 39 350 336 326 297 301 298 293 288 280 271 271 267 265 266 273 277 279 278 274 272 272 271 270 268 266 266 265
175 140 195 193 166 245 263 247 229 236 227 249 224 218 172 172 168 151 139 133 107 298 294 305 307 305 307 305 305 301 297 291 285 282 276 275 274 271 273 274 272 272 273 272 271 271 271 266 264
145 186 200 160 174 198 233 249 208 212 204 209 189 169 169 176 166 157 158 185 265 276 284 292 293 292 289 295 301 308 313 307 299 297 291 286 284 281 277 274 276 274 271 269 270 269 269 268 266
203 196 189 197 215 220 185 258 239 150 158 144 169 170 180 175 170 171 177 219 251 261 265 271 275 286 301 305 309 313 314 310 311 315 313 300 287 283 281 277 275 274 272 271 269 269 268 268 266